TimePDT,TemperatureF,Dew PointF,Humidity,Sea Level PressureIn,VisibilityMPH,Wind Direction,Wind SpeedMPH,Gust SpeedMPH,PrecipitationIn,Events,Conditions,WindDirDegrees,DateUTC
12:53 AM,73.9,48.0,40,29.85,10.0,WNW,5.8,-,N/A,,Clear,290,2013-07-12 07:53:00
1:53 AM,72.0,48.9,44,29.86,10.0,WNW,4.6,-,N/A,,Clear,300,2013-07-12 08:53:00
2:53 AM,70.0,48.0,46,29.86,10.0,WNW,5.8,-,N/A,,Clear,300,2013-07-12 09:53:00
3:53 AM,68.0,46.9,47,29.86,10.0,WNW,4.6,-,N/A,,Clear,300,2013-07-12 10:53:00
4:53 AM,63.0,46.0,54,29.87,10.0,Calm,Calm,-,N/A,,Clear,0,2013-07-12 11:53:00
5:53 AM,59.0,50.0,72,29.88,10.0,Calm,Calm,-,N/A,,Clear,0,2013-07-12 12:53:00
6:53 AM,64.0,46.9,54,29.89,10.0,Calm,Calm,-,N/A,,Clear,0,2013-07-12 13:53:00
7:53 AM,72.0,51.1,48,29.90,10.0,Calm,Calm,-,N/A,,Clear,0,2013-07-12 14:53:00
8:53 AM,73.9,53.1,48,29.90,9.0,Calm,Calm,-,N/A,,Clear,0,2013-07-12 15:53:00
9:53 AM,80.1,53.1,39,29.90,9.0,South,5.8,-,N/A,,Clear,180,2013-07-12 16:53:00
10:53 AM,84.0,46.9,27,29.90,10.0,Variable,5.8,-,N/A,,Clear,0,2013-07-12 17:53:00
11:53 AM,87.1,45.0,23,29.88,10.0,SSW,5.8,-,N/A,,Clear,200,2013-07-12 18:53:00
12:53 PM,91.9,41.0,17,29.87,10.0,South,8.1,-,N/A,,Clear,180,2013-07-12 19:53:00
1:53 PM,93.0,44.1,18,29.85,10.0,Variable,4.6,-,N/A,,Clear,0,2013-07-12 20:53:00
2:53 PM,93.9,46.0,19,29.83,10.0,Calm,Calm,-,N/A,,Partly Cloudy,0,2013-07-12 21:53:00
3:53 PM,97.0,44.1,16,29.81,10.0,East,4.6,-,N/A,,Clear,80,2013-07-12 22:53:00
4:53 PM,98.1,42.1,15,29.79,10.0,Variable,4.6,-,N/A,,Clear,0,2013-07-12 23:53:00
5:53 PM,97.0,46.9,18,29.78,10.0,NNE,5.8,-,N/A,,Clear,20,2013-07-13 00:53:00
6:53 PM,96.1,41.0,15,29.78,10.0,North,4.6,-,N/A,,Clear,360,2013-07-13 01:53:00
7:53 PM,93.0,48.0,21,29.79,10.0,NW,9.2,-,N/A,,Clear,320,2013-07-13 02:53:00
8:53 PM,88.0,51.1,28,29.80,10.0,NW,9.2,-,N/A,,Clear,310,2013-07-13 03:53:00
9:53 PM,84.9,52.0,32,29.82,10.0,NW,8.1,-,N/A,,Clear,320,2013-07-13 04:53:00
10:53 PM,82.0,53.1,37,29.84,10.0,NW,12.7,-,N/A,,Clear,310,2013-07-13 05:53:00
11:53 PM,78.1,55.9,46,29.85,10.0,NW,11.5,-,N/A,,Clear,320,2013-07-13 06:53:00